Time,TemperatureF,DewpointF,PressureIn,WindDirection,WindDirectionDegrees,WindSpeedMPH,WindSpeedGustMPH,Humidity,HourlyPrecipIn,Conditions,Clouds,dailyrainin,SoftwareType,DateUTC
2013-03-26 00:00:00,60.3,35.2,30.04,NNW,340,5.8,5.8,39,0.00,CLR,,0.00,WeatherDisplay:10.37,2013-03-26 04:00:00,
2013-03-26 00:01:00,60.3,35.2,30.04,NE,41,5.8,5.8,39,0.00,CLR,,0.00,WeatherDisplay:10.37,2013-03-26 04:01:00,
2013-03-26 00:06:00,60.4,35.3,30.04,North,353,8.1,8.1,39,0.00,CLR,,0.00,WeatherDisplay:10.37,2013-03-26 04:06:00,
2013-03-26 00:16:00,60.3,35.2,30.04,North,349,5.8,5.8,39,0.00,CLR,,0.00,WeatherDisplay:10.37,2013-03-26 04:16:00,
2013-03-26 00:21:00,60.3,35.2,30.04,NNW,328,5.8,5.8,39,0.00,CLR,,0.00,WeatherDisplay:10.37,2013-03-26 04:21:00,
2013-03-26 00:31:00,60.1,35.0,30.04,WNW,292,5.8,5.8,39,0.00,CLR,,0.00,WeatherDisplay:10.37,2013-03-26 04:31:00,
2013-03-26 00:36:00,60.1,35.0,30.04,North,353,5.8,5.8,39,0.00,CLR,,0.00,WeatherDisplay:10.37,2013-03-26 04:36:00,
2013-03-26 00:46:00,59.9,34.2,30.04,NW,306,5.8,5.8,38,0.00,CLR,,0.00,WeatherDisplay:10.37,2013-03-26 04:46:00,
2013-03-26 00:52:00,59.9,34.2,30.04,West,266,5.8,5.8,38,0.00,CLR,,0.00,WeatherDisplay:10.37,2013-03-26 04:52:00,
2013-03-26 01:00:00,59.9,34.2,30.04,North,0,5.8,5.8,38,0.00,CLR,,0.00,WeatherDisplay:10.37,2013-03-26 05:00:00,
2013-03-26 01:01:00,59.9,34.2,30.04,NNW,339,7.6,7.6,38,0.00,CLR,,0.00,WeatherDisplay:10.37,2013-03-26 05:01:00,
2013-03-26 01:05:00,59.9,34.2,30.04,NNW,343,7.6,7.6,38,0.00,CLR,,0.00,WeatherDisplay:10.37,2013-03-26 05:05:00,
2013-03-26 01:10:00,59.9,34.2,30.04,NNW,330,6.3,6.3,38,0.00,CLR,,0.00,WeatherDisplay:10.37,2013-03-26 05:10:00,
2013-03-26 01:16:00,59.9,34.2,30.04,North,5,4.0,4.0,38,0.00,CLR,,0.00,WeatherDisplay:10.37,2013-03-26 05:16:00,
2013-03-26 01:21:00,59.9,34.2,30.04,North,353,8.1,8.1,38,0.00,CLR,,0.00,WeatherDisplay:10.37,2013-03-26 05:21:00,
2013-03-26 01:31:00,60.1,32.3,30.04,NNW,348,7.6,7.6,35,0.00,CLR,,0.00,WeatherDisplay:10.37,2013-03-26 05:31:00,
2013-03-26 01:36:00,60.1,32.3,30.04,North,3,5.8,5.8,35,0.00,CLR,,0.00,WeatherDisplay:10.37,2013-03-26 05:36:00,
2013-03-26 01:46:00,60.1,32.3,30.04,NNW,335,6.3,6.3,35,0.00,CLR,,0.00,WeatherDisplay:10.37,2013-03-26 05:46:00,
2013-03-26 01:51:00,60.1,32.3,30.04,NW,317,5.8,5.8,35,0.00,CLR,,0.00,WeatherDisplay:10.37,2013-03-26 05:51:00,
2013-03-26 02:00:00,60.1,32.3,30.04,NNW,334,7.6,7.6,35,0.00,CLR,,0.00,WeatherDisplay:10.37,2013-03-26 06:00:00,
2013-03-26 02:01:00,60.1,32.3,30.04,NNW,335,9.2,9.2,35,0.00,CLR,,0.00,WeatherDisplay:10.37,2013-03-26 06:01:00,
2013-03-26 02:05:00,60.1,32.3,30.04,NNW,344,5.8,5.8,35,0.00,CLR,,0.00,WeatherDisplay:10.37,2013-03-26 06:05:00,
2013-03-26 02:10:00,60.1,32.3,30.04,North,357,8.1,8.1,35,0.00,CLR,,0.00,WeatherDisplay:10.37,2013-03-26 06:10:00,
2013-03-26 02:16:00,60.1,32.3,30.01,NNW,339,5.8,5.8,35,0.00,CLR,,0.00,WeatherDisplay:10.37,2013-03-26 06:16:00,
2013-03-26 02:21:00,60.1,32.3,30.01,NNW,331,6.9,6.9,35,0.00,CLR,,0.00,WeatherDisplay:10.37,2013-03-26 06:21:00,
2013-03-26 02:31:00,59.7,31.3,30.04,NNW,333,11.5,11.5,34,0.00,CLR,,0.00,WeatherDisplay:10.37,2013-03-26 06:31:00,
2013-03-26 02:36:00,59.7,30.5,30.04,NNW,336,9.6,9.6,33,0.00,CLR,,0.00,WeatherDisplay:10.37,2013-03-26 06:36:00,
2013-03-26 02:46:00,59.9,29.9,30.04,NNW,344,5.8,5.8,32,0.00,CLR,,0.00,WeatherDisplay:10.37,2013-03-26 06:46:00,
2013-03-26 02:51:00,59.7,29.0,30.04,NW,308,5.8,5.8,31,0.00,CLR,,0.00,WeatherDisplay:10.37,2013-03-26 06:51:00,
2013-03-26 03:00:00,59.7,27.4,30.01,NNW,332,7.2,7.2,29,0.00,CLR,,0.00,WeatherDisplay:10.37,2013-03-26 07:00:00,
2013-03-26 03:01:00,59.7,26.5,30.01,NNW,341,11.5,11.5,28,0.00,CLR,,0.00,WeatherDisplay:10.37,2013-03-26 07:01:00,
2013-03-26 03:05:00,59.7,27.4,30.01,North,349,8.3,8.3,29,0.00,CLR,,0.00,WeatherDisplay:10.37,2013-03-26 07:05:00,
2013-03-26 03:10:00,59.7,26.5,30.01,North,1,11.5,11.5,28,0.00,CLR,,0.00,WeatherDisplay:10.37,2013-03-26 07:10:00,
2013-03-26 03:16:00,59.7,27.4,30.01,NW,319,10.3,10.3,29,0.00,CLR,,0.00,WeatherDisplay:10.37,2013-03-26 07:16:00,
2013-03-26 03:21:00,59.7,26.5,30.01,NW,310,11.5,11.5,28,0.00,CLR,,0.00,WeatherDisplay:10.37,2013-03-26 07:21:00,
2013-03-26 03:31:00,59.5,26.4,30.01,North,353,5.8,5.8,28,0.00,CLR,,0.00,WeatherDisplay:10.37,2013-03-26 07:31:00,
2013-03-26 03:36:00,59.5,27.2,30.01,North,349,10.3,10.3,29,0.00,CLR,,0.00,WeatherDisplay:10.37,2013-03-26 07:36:00,
2013-03-26 03:46:00,59.5,29.6,30.01,North,8,12.6,12.6,32,0.00,CLR,,0.00,WeatherDisplay:10.37,2013-03-26 07:46:00,
2013-03-26 03:51:00,59.5,30.4,30.01,NNW,331,11.5,11.5,33,0.00,CLR,,0.00,WeatherDisplay:10.37,2013-03-26 07:51:00,
2013-03-26 04:00:00,59.4,31.0,30.01,NNW,342,9.2,9.2,34,0.00,CLR,,0.00,WeatherDisplay:10.37,2013-03-26 08:00:00,
2013-03-26 04:01:00,59.2,30.1,30.01,NNW,341,11.5,11.5,33,0.00,CLR,,0.00,WeatherDisplay:10.37,2013-03-26 08:01:00,
2013-03-26 04:05:00,59.2,30.8,30.01,North,353,11.5,11.5,34,0.00,CLR,,0.00,WeatherDisplay:10.37,2013-03-26 08:05:00,
2013-03-26 04:10:00,59.2,30.1,30.01,North,350,10.3,10.3,33,0.00,CLR,,0.00,WeatherDisplay:10.37,2013-03-26 08:10:00,
2013-03-26 04:16:00,59.0,29.9,30.04,North,349,11.5,11.5,33,0.00,CLR,,0.00,WeatherDisplay:10.37,2013-03-26 08:16:00,
2013-03-26 04:21:00,58.8,29.0,30.04,NNW,342,12.6,12.6,32,0.00,CLR,,0.00,WeatherDisplay:10.37,2013-03-26 08:21:00,
2013-03-26 04:31:00,58.6,28.8,30.04,North,353,8.1,8.1,32,0.00,CLR,,0.00,WeatherDisplay:10.37,2013-03-26 08:31:00,
2013-03-26 04:36:00,58.5,28.7,30.04,NW,325,10.5,10.5,32,0.00,CLR,,0.00,WeatherDisplay:10.37,2013-03-26 08:36:00,
2013-03-26 04:46:00,58.1,28.4,30.04,NNW,343,10.3,10.3,32,0.00,CLR,,0.00,WeatherDisplay:10.37,2013-03-26 08:46:00,
2013-03-26 04:51:00,57.9,28.2,30.04,NNW,340,12.6,12.6,32,0.00,CLR,,0.00,WeatherDisplay:10.37,2013-03-26 08:51:00,
2013-03-26 05:00:00,57.7,28.0,30.04,NNW,344,11.5,11.5,32,0.00,CLR,,0.00,WeatherDisplay:10.37,2013-03-26 09:00:00,
2013-03-26 05:01:00,57.6,27.1,30.04,NNW,330,12.3,12.3,31,0.00,CLR,,0.00,WeatherDisplay:10.37,2013-03-26 09:01:00,
2013-03-26 05:05:00,57.6,27.1,30.04,NNW,343,12.6,12.6,31,0.00,CLR,,0.00,WeatherDisplay:10.37,2013-03-26 09:05:00,
2013-03-26 05:10:00,57.6,27.1,30.04,NNW,337,15.0,15.0,31,0.00,CLR,,0.00,WeatherDisplay:10.37,2013-03-26 09:10:00,
2013-03-26 05:16:00,57.4,27.0,30.04,NNW,335,11.5,11.5,31,0.00,CLR,,0.00,WeatherDisplay:10.37,2013-03-26 09:16:00,
2013-03-26 05:21:00,57.2,26.8,30.04,NW,325,11.5,11.5,31,0.00,CLR,,0.00,WeatherDisplay:10.37,2013-03-26 09:21:00,
2013-03-26 05:31:00,56.7,28.6,30.04,NNW,332,9.2,9.2,34,0.00,CLR,,0.00,WeatherDisplay:10.37,2013-03-26 09:31:00,
2013-03-26 05:36:00,56.3,29.0,30.04,North,353,8.1,8.1,35,0.00,CLR,,0.00,WeatherDisplay:10.37,2013-03-26 09:36:00,
2013-03-26 05:46:00,55.9,28.7,30.04,NNE,21,5.8,5.8,35,0.00,CLR,,0.00,WeatherDisplay:10.37,2013-03-26 09:46:00,
2013-03-26 05:51:00,54.9,27.7,30.04,North,357,6.9,6.9,35,0.00,CLR,,0.00,WeatherDisplay:10.37,2013-03-26 09:51:00,
2013-03-26 06:00:00,54.5,26.7,30.04,North,353,5.8,5.8,34,0.00,CLR,,0.00,WeatherDisplay:10.37,2013-03-26 10:00:00,
2013-03-26 06:01:00,54.5,26.7,30.04,North,353,8.1,8.1,34,0.00,FEW,,0.00,WeatherDisplay:10.37,2013-03-26 10:01:00,
2013-03-26 06:05:00,54.5,26.7,30.04,North,353,5.8,5.8,34,0.00,FEW,,0.00,WeatherDisplay:10.37,2013-03-26 10:05:00,
2013-03-26 06:10:00,54.5,26.7,30.04,NNE,33,8.0,8.0,34,0.00,FEW,,0.00,WeatherDisplay:10.37,2013-03-26 10:10:00,
2013-03-26 06:16:00,54.5,26.7,30.04,NNE,20,5.8,5.8,34,0.00,FEW,,0.00,WeatherDisplay:10.37,2013-03-26 10:16:00,
2013-03-26 06:21:00,53.1,24.7,30.04,NNE,15,5.8,5.8,33,0.00,FEW,,0.00,WeatherDisplay:10.37,2013-03-26 10:21:00,
2013-03-26 06:31:00,52.5,24.2,30.07,North,357,6.9,6.9,33,0.00,FEW,,0.00,WeatherDisplay:10.37,2013-03-26 10:31:00,
2013-03-26 06:36:00,52.5,24.2,30.07,NE,43,8.1,8.1,33,0.00,FEW,,0.00,WeatherDisplay:10.37,2013-03-26 10:36:00,
2013-03-26 06:46:00,52.2,24.6,30.07,NNW,341,8.1,8.1,34,0.00,FEW,,0.00,WeatherDisplay:10.37,2013-03-26 10:46:00,
2013-03-26 06:51:00,52.2,24.6,30.07,East,98,3.4,3.6,34,0.00,FEW,,0.00,WeatherDisplay:10.37,2013-03-26 10:51:00,
2013-03-26 07:00:00,51.8,25.0,30.07,NNE,16,4.9,4.9,35,0.00,FEW,,0.00,WeatherDisplay:10.37,2013-03-26 11:00:00,
2013-03-26 07:01:00,51.4,25.3,30.07,North,357,5.8,5.8,36,0.00,CLR,,0.00,WeatherDisplay:10.37,2013-03-26 11:01:00,
2013-03-26 07:05:00,51.6,25.5,30.07,NE,35,3.4,3.4,36,0.00,CLR,,0.00,WeatherDisplay:10.37,2013-03-26 11:05:00,
2013-03-26 07:10:00,51.4,25.3,30.07,North,353,5.8,5.8,36,0.00,CLR,,0.00,WeatherDisplay:10.37,2013-03-26 11:10:00,
2013-03-26 07:16:00,51.4,25.3,30.07,NNE,17,5.8,5.8,36,0.00,CLR,,0.00,WeatherDisplay:10.37,2013-03-26 11:16:00,
2013-03-26 07:21:00,51.3,25.2,30.07,NNE,26,4.6,4.6,36,0.00,CLR,,0.00,WeatherDisplay:10.37,2013-03-26 11:21:00,
2013-03-26 07:31:00,51.1,25.7,30.07,NNW,337,4.6,4.6,37,0.00,CLR,,0.00,WeatherDisplay:10.37,2013-03-26 11:31:00,
2013-03-26 07:36:00,51.1,25.7,30.07,NE,34,5.4,5.4,37,0.00,CLR,,0.00,WeatherDisplay:10.37,2013-03-26 11:36:00,
2013-03-26 07:46:00,50.9,25.5,30.10,North,357,4.9,4.9,37,0.00,CLR,,0.00,WeatherDisplay:10.37,2013-03-26 11:46:00,
2013-03-26 07:51:00,50.7,25.4,30.10,NE,45,6.3,6.3,37,0.00,CLR,,0.00,WeatherDisplay:10.37,2013-03-26 11:51:00,
2013-03-26 08:00:00,50.7,25.4,30.10,North,0,5.8,5.8,37,0.00,CLR,,0.00,WeatherDisplay:10.37,2013-03-26 12:00:00,
2013-03-26 08:01:00,50.9,25.5,30.10,North,10,5.8,5.8,37,0.00,FEW,,0.00,WeatherDisplay:10.37,2013-03-26 12:01:00,
2013-03-26 08:05:00,50.7,25.4,30.10,NNE,23,3.4,3.4,37,0.00,FEW,,0.00,WeatherDisplay:10.37,2013-03-26 12:05:00,
2013-03-26 08:10:00,50.9,25.5,30.10,North,7,5.8,5.8,37,0.00,FEW,,0.00,WeatherDisplay:10.37,2013-03-26 12:10:00,
2013-03-26 08:16:00,50.9,25.5,30.10,North,353,5.8,5.8,37,0.00,FEW,,0.00,WeatherDisplay:10.37,2013-03-26 12:16:00,
2013-03-26 08:21:00,50.9,25.5,30.10,NNW,344,8.1,8.1,37,0.00,FEW,,0.00,WeatherDisplay:10.37,2013-03-26 12:21:00,
2013-03-26 08:31:00,51.1,25.7,30.10,North,357,3.6,3.6,37,0.00,FEW,,0.00,WeatherDisplay:10.37,2013-03-26 12:31:00,
2013-03-26 08:36:00,51.3,25.8,30.10,North,7,8.1,8.1,37,0.00,FEW,,0.00,WeatherDisplay:10.37,2013-03-26 12:36:00,
2013-03-26 08:46:00,51.3,25.8,30.13,North,11,5.8,5.8,37,0.00,FEW,,0.00,WeatherDisplay:10.37,2013-03-26 12:46:00,
2013-03-26 08:51:00,51.3,25.8,30.13,ENE,74,5.8,5.8,37,0.00,FEW,,0.00,WeatherDisplay:10.37,2013-03-26 12:51:00,
2013-03-26 09:00:00,51.4,26.0,30.13,North,353,5.8,5.8,37,0.00,FEW,,0.00,WeatherDisplay:10.37,2013-03-26 13:00:00,
2013-03-26 09:01:00,51.6,26.2,30.13,North,357,8.1,8.1,37,0.00,SCT,,0.00,WeatherDisplay:10.37,2013-03-26 13:01:00,
2013-03-26 09:05:00,51.6,26.2,30.13,ENE,75,5.4,5.4,37,0.00,SCT,,0.00,WeatherDisplay:10.37,2013-03-26 13:05:00,
2013-03-26 09:10:00,51.6,26.2,30.13,North,4,3.4,3.4,37,0.00,SCT,,0.00,WeatherDisplay:10.37,2013-03-26 13:10:00,
2013-03-26 09:16:00,51.8,26.3,30.13,North,1,5.8,5.8,37,0.00,SCT,,0.00,WeatherDisplay:10.37,2013-03-26 13:16:00,
2013-03-26 09:21:00,52.2,26.6,30.13,NNE,15,8.7,8.7,37,0.00,SCT,,0.00,WeatherDisplay:10.37,2013-03-26 13:21:00,
2013-03-26 09:31:00,53.2,28.3,30.13,North,3,12.6,12.6,38,0.00,SCT,,0.00,WeatherDisplay:10.37,2013-03-26 13:31:00,
2013-03-26 09:36:00,53.8,28.1,30.13,North,349,10.3,10.3,37,0.00,SCT,,0.00,WeatherDisplay:10.37,2013-03-26 13:36:00,
2013-03-26 09:46:00,54.5,28.7,30.13,NE,43,16.1,16.1,37,0.00,SCT,,0.00,WeatherDisplay:10.37,2013-03-26 13:46:00,
2013-03-26 09:51:00,54.3,28.6,30.13,North,353,12.6,12.6,37,0.00,SCT,,0.00,WeatherDisplay:10.37,2013-03-26 13:51:00,
2013-03-26 10:00:00,55.0,29.2,30.16,North,349,13.2,13.2,37,0.00,SCT,,0.00,WeatherDisplay:10.37,2013-03-26 14:00:00,
2013-03-26 10:01:00,55.6,29.0,30.16,NNW,333,12.6,12.6,36,0.00,SCT,,0.00,WeatherDisplay:10.37,2013-03-26 14:01:00,
2013-03-26 10:05:00,55.4,28.9,30.16,North,353,11.5,11.5,36,0.00,SCT,,0.00,WeatherDisplay:10.37,2013-03-26 14:05:00,
2013-03-26 10:10:00,55.6,29.0,30.16,NNW,342,12.6,12.7,36,0.00,SCT,,0.00,WeatherDisplay:10.37,2013-03-26 14:10:00,
2013-03-26 10:16:00,55.6,28.3,30.16,NNW,335,13.2,13.2,35,0.00,SCT,,0.00,WeatherDisplay:10.37,2013-03-26 14:16:00,
2013-03-26 10:21:00,55.8,28.5,30.16,North,6,18.4,18.4,35,0.00,SCT,,0.00,WeatherDisplay:10.37,2013-03-26 14:21:00,
2013-03-26 10:31:00,56.1,28.1,30.16,WSW,249,13.8,13.8,34,0.00,SCT,,0.00,WeatherDisplay:10.37,2013-03-26 14:31:00,
2013-03-26 10:37:00,56.3,27.5,30.16,WNW,294,13.2,13.2,33,0.00,SCT,,0.00,WeatherDisplay:10.37,2013-03-26 14:37:00,
2013-03-26 10:46:00,56.3,27.5,30.16,South,186,17.3,17.3,33,0.00,SCT,,0.00,WeatherDisplay:10.37,2013-03-26 14:46:00,
2013-03-26 10:51:00,56.3,26.8,30.16,NW,310,12.6,12.6,32,0.00,SCT,,0.00,WeatherDisplay:10.37,2013-03-26 14:51:00,
2013-03-26 11:00:00,56.5,26.9,30.16,North,353,15.0,15.0,32,0.00,SCT,,0.00,WeatherDisplay:10.37,2013-03-26 15:00:00,
2013-03-26 11:01:00,56.5,26.2,30.16,NW,326,9.2,9.2,31,0.00,FEW,,0.00,WeatherDisplay:10.37,2013-03-26 15:01:00,
2013-03-26 11:05:00,56.7,26.3,30.16,North,11,21.9,21.9,31,0.00,FEW,,0.00,WeatherDisplay:10.37,2013-03-26 15:05:00,
2013-03-26 11:10:00,56.5,26.2,30.16,North,0,9.2,9.2,31,0.00,FEW,,0.00,WeatherDisplay:10.37,2013-03-26 15:10:00,
2013-03-26 11:16:00,56.8,25.7,30.16,West,280,12.6,12.6,30,0.00,FEW,,0.00,WeatherDisplay:10.37,2013-03-26 15:16:00,
2013-03-26 11:17:00,56.7,25.5,30.16,NNW,338,10.3,10.3,30,0.00,FEW,,0.00,WeatherDisplay:10.37,2013-03-26 15:17:00,
2013-03-26 11:22:00,56.7,25.5,30.16,NNW,336,14.9,14.9,30,0.00,FEW,,0.00,WeatherDisplay:10.37,2013-03-26 15:22:00,
2013-03-26 11:31:00,56.7,23.9,30.16,NW,316,10.3,10.3,28,0.00,FEW,,0.00,WeatherDisplay:10.37,2013-03-26 15:31:00,
2013-03-26 11:36:00,56.8,24.0,30.16,NNW,338,14.9,14.9,28,0.00,FEW,,0.00,WeatherDisplay:10.37,2013-03-26 15:36:00,
2013-03-26 11:46:00,57.2,23.5,30.16,NW,317,10.5,10.5,27,0.00,FEW,,0.00,WeatherDisplay:10.37,2013-03-26 15:46:00,
2013-03-26 11:51:00,56.8,24.0,30.16,SE,125,9.2,9.2,28,0.00,FEW,,0.00,WeatherDisplay:10.37,2013-03-26 15:51:00,
2013-03-26 12:00:00,56.1,24.3,30.16,North,8,19.7,19.7,29,0.00,FEW,,0.00,WeatherDisplay:10.37,2013-03-26 16:00:00,
2013-03-26 12:01:00,57.0,24.2,30.16,NW,310,17.3,17.3,28,0.00,CLR,,0.00,WeatherDisplay:10.37,2013-03-26 16:01:00,
2013-03-26 12:05:00,56.8,24.9,30.16,NNW,344,15.0,15.0,29,0.00,CLR,,0.00,WeatherDisplay:10.37,2013-03-26 16:05:00,
2013-03-26 12:10:00,57.2,24.3,30.16,North,353,17.3,17.3,28,0.00,CLR,,0.00,WeatherDisplay:10.37,2013-03-26 16:10:00,
2013-03-26 12:16:00,57.0,24.2,30.16,NNW,336,14.9,14.9,28,0.00,CLR,,0.00,WeatherDisplay:10.37,2013-03-26 16:16:00,
2013-03-26 12:21:00,57.6,24.7,30.16,North,7,15.4,15.4,28,0.00,CLR,,0.00,WeatherDisplay:10.37,2013-03-26 16:21:00,
2013-03-26 12:31:00,57.9,24.1,30.16,West,281,10.3,10.3,27,0.00,CLR,,0.00,WeatherDisplay:10.37,2013-03-26 16:31:00,
2013-03-26 12:36:00,57.2,23.5,30.16,WSW,247,13.2,13.2,27,0.00,CLR,,0.00,WeatherDisplay:10.37,2013-03-26 16:36:00,
2013-03-26 12:46:00,57.7,23.9,30.16,North,353,13.8,13.8,27,0.00,CLR,,0.00,WeatherDisplay:10.37,2013-03-26 16:46:00,
2013-03-26 12:51:00,58.1,24.3,30.16,West,278,12.6,12.6,27,0.00,CLR,,0.00,WeatherDisplay:10.37,2013-03-26 16:51:00,
2013-03-26 13:00:00,57.9,25.0,30.19,NNW,340,12.6,12.6,28,0.00,CLR,,0.00,WeatherDisplay:10.37,2013-03-26 17:00:00,
2013-03-26 13:01:00,57.7,23.0,30.19,WSW,241,12.6,12.6,26,0.00,CLR,,0.00,WeatherDisplay:10.37,2013-03-26 17:01:00,
2013-03-26 13:05:00,57.9,23.2,30.19,North,2,15.0,15.0,26,0.00,CLR,,0.00,WeatherDisplay:10.37,2013-03-26 17:05:00,
2013-03-26 13:10:00,57.7,23.0,30.19,West,265,14.9,14.9,26,0.00,CLR,,0.00,WeatherDisplay:10.37,2013-03-26 17:10:00,
2013-03-26 13:16:00,57.4,23.6,30.19,NNW,344,15.0,15.0,27,0.00,CLR,,0.00,WeatherDisplay:10.37,2013-03-26 17:16:00,
2013-03-26 13:21:00,57.0,23.3,30.19,NE,55,12.6,12.6,27,0.00,CLR,,0.00,WeatherDisplay:10.37,2013-03-26 17:21:00,
2013-03-26 13:31:00,57.7,23.9,30.19,NW,317,14.9,14.9,27,0.00,CLR,,0.00,WeatherDisplay:10.37,2013-03-26 17:31:00,
2013-03-26 13:36:00,58.1,24.3,30.19,NNW,333,25.3,25.3,27,0.00,CLR,,0.00,WeatherDisplay:10.37,2013-03-26 17:36:00,
2013-03-26 13:46:00,57.2,23.5,30.19,West,260,16.1,16.1,27,0.00,CLR,,0.00,WeatherDisplay:10.37,2013-03-26 17:46:00,
2013-03-26 13:51:00,57.4,23.6,30.19,West,277,9.2,9.2,27,0.00,CLR,,0.00,WeatherDisplay:10.37,2013-03-26 17:51:00,
2013-03-26 14:00:00,57.2,24.3,30.19,NNW,339,11.5,11.5,28,0.00,CLR,,0.00,WeatherDisplay:10.37,2013-03-26 18:00:00,
2013-03-26 14:01:00,57.9,25.0,30.19,WNW,292,10.3,10.3,28,0.00,FEW,,0.00,WeatherDisplay:10.37,2013-03-26 18:01:00,
2013-03-26 14:05:00,57.6,24.7,30.19,North,353,13.8,13.8,28,0.00,FEW,,0.00,WeatherDisplay:10.37,2013-03-26 18:05:00,
2013-03-26 14:10:00,57.7,23.9,30.19,NNW,339,14.9,14.9,27,0.00,FEW,,0.00,WeatherDisplay:10.37,2013-03-26 18:10:00,
2013-03-26 14:16:00,57.6,23.8,30.19,NNW,338,12.6,12.6,27,0.00,FEW,,0.00,WeatherDisplay:10.37,2013-03-26 18:16:00,
2013-03-26 14:21:00,57.9,24.1,30.19,North,0,14.5,14.5,27,0.00,FEW,,0.00,WeatherDisplay:10.37,2013-03-26 18:21:00,
2013-03-26 14:31:00,57.0,23.3,30.19,NW,325,10.3,10.3,27,0.00,FEW,,0.00,WeatherDisplay:10.37,2013-03-26 18:31:00,
2013-03-26 14:36:00,57.7,23.9,30.19,West,279,12.7,12.7,27,0.00,FEW,,0.00,WeatherDisplay:10.37,2013-03-26 18:36:00,
2013-03-26 14:46:00,58.6,24.7,30.19,North,353,6.9,6.9,27,0.00,FEW,,0.00,WeatherDisplay:10.37,2013-03-26 18:46:00,
2013-03-26 14:51:00,58.1,24.3,30.19,NW,321,10.3,10.3,27,0.00,FEW,,0.00,WeatherDisplay:10.37,2013-03-26 18:51:00,
2013-03-26 15:00:00,58.1,23.3,30.19,NNW,330,14.9,14.9,26,0.00,FEW,,0.00,WeatherDisplay:10.37,2013-03-26 19:00:00,
2013-03-26 15:01:00,58.1,24.3,30.19,NW,310,21.9,21.9,27,0.00,FEW,,0.00,WeatherDisplay:10.37,2013-03-26 19:01:00,
2013-03-26 15:05:00,57.7,23.9,30.19,West,272,12.6,12.6,27,0.00,FEW,,0.00,WeatherDisplay:10.37,2013-03-26 19:05:00,
2013-03-26 15:10:00,57.9,24.1,30.19,North,5,14.9,14.9,27,0.00,FEW,,0.00,WeatherDisplay:10.37,2013-03-26 19:10:00,
2013-03-26 15:16:00,58.3,24.4,30.19,NNW,343,11.5,11.5,27,0.00,FEW,,0.00,WeatherDisplay:10.37,2013-03-26 19:16:00,
2013-03-26 15:21:00,57.4,24.5,30.19,North,353,13.8,13.8,28,0.00,FEW,,0.00,WeatherDisplay:10.37,2013-03-26 19:21:00,
2013-03-26 15:31:00,58.8,24.9,30.16,WNW,284,8.1,8.1,27,0.00,FEW,,0.00,WeatherDisplay:10.37,2013-03-26 19:31:00,
2013-03-26 15:36:00,58.6,24.7,30.16,North,350,10.3,10.3,27,0.00,FEW,,0.00,WeatherDisplay:10.37,2013-03-26 19:36:00,
2013-03-26 15:46:00,57.6,24.7,30.16,WSW,254,8.1,8.1,28,0.00,FEW,,0.00,WeatherDisplay:10.37,2013-03-26 19:46:00,
2013-03-26 15:51:00,57.9,24.1,30.16,NW,321,17.3,17.3,27,0.00,FEW,,0.00,WeatherDisplay:10.37,2013-03-26 19:51:00,
2013-03-26 16:00:00,57.9,25.0,30.16,North,0,8.0,8.0,28,0.00,FEW,,0.00,WeatherDisplay:10.37,2013-03-26 20:00:00,
2013-03-26 16:01:00,57.2,24.3,30.16,NW,323,9.6,9.6,28,0.00,FEW,,0.00,WeatherDisplay:10.37,2013-03-26 20:01:00,
2013-03-26 16:05:00,58.1,25.1,30.16,West,270,14.9,14.9,28,0.00,FEW,,0.00,WeatherDisplay:10.37,2013-03-26 20:05:00,
2013-03-26 16:10:00,57.4,24.5,30.16,SW,231,12.6,12.6,28,0.00,FEW,,0.00,WeatherDisplay:10.37,2013-03-26 20:10:00,
2013-03-26 16:16:00,57.9,25.0,30.16,NNW,339,8.1,8.1,28,0.00,FEW,,0.00,WeatherDisplay:10.37,2013-03-26 20:16:00,
2013-03-26 16:21:00,58.1,24.3,30.16,North,1,12.6,12.6,27,0.00,FEW,,0.00,WeatherDisplay:10.37,2013-03-26 20:21:00,
2013-03-26 16:31:00,57.6,24.7,30.16,NNW,340,12.6,12.6,28,0.00,FEW,,0.00,WeatherDisplay:10.37,2013-03-26 20:31:00,
2013-03-26 16:36:00,57.6,23.8,30.16,WSW,240,11.5,11.5,27,0.00,FEW,,0.00,WeatherDisplay:10.37,2013-03-26 20:36:00,
2013-03-26 16:46:00,57.4,23.6,30.16,NNE,12,14.9,14.9,27,0.00,FEW,,0.00,WeatherDisplay:10.37,2013-03-26 20:46:00,
2013-03-26 16:51:00,57.7,24.8,30.16,SSW,207,8.1,8.1,28,0.00,FEW,,0.00,WeatherDisplay:10.37,2013-03-26 20:51:00,
2013-03-26 17:00:00,58.6,24.7,30.16,WNW,290,10.3,10.3,27,0.00,FEW,,0.00,WeatherDisplay:10.37,2013-03-26 21:00:00,
2013-03-26 17:01:00,59.2,24.3,30.16,North,357,9.2,9.2,26,0.00,SCT,,0.00,WeatherDisplay:10.37,2013-03-26 21:01:00,
2013-03-26 17:05:00,59.2,25.2,30.16,WNW,293,11.5,11.5,27,0.00,SCT,,0.00,WeatherDisplay:10.37,2013-03-26 21:05:00,
2013-03-26 17:10:00,59.0,24.1,30.16,NNW,342,8.7,8.7,26,0.00,SCT,,0.00,WeatherDisplay:10.37,2013-03-26 21:10:00,
2013-03-26 17:16:00,58.3,23.5,30.16,NW,319,19.5,19.5,26,0.00,SCT,,0.00,WeatherDisplay:10.37,2013-03-26 21:16:00,
2013-03-26 17:21:00,57.6,23.8,30.16,West,266,10.1,10.1,27,0.00,SCT,,0.00,WeatherDisplay:10.37,2013-03-26 21:21:00,
2013-03-26 17:31:00,59.4,24.4,30.16,NW,326,12.7,12.7,26,0.00,SCT,,0.00,WeatherDisplay:10.37,2013-03-26 21:31:00,
2013-03-26 17:36:00,58.5,23.7,30.16,West,263,10.3,10.3,26,0.00,SCT,,0.00,WeatherDisplay:10.37,2013-03-26 21:36:00,
2013-03-26 17:46:00,59.2,24.3,30.16,NNW,342,13.8,13.8,26,0.00,SCT,,0.00,WeatherDisplay:10.37,2013-03-26 21:46:00,
2013-03-26 17:51:00,59.2,25.2,30.16,West,277,10.3,10.3,27,0.00,SCT,,0.00,WeatherDisplay:10.37,2013-03-26 21:51:00,
2013-03-26 18:00:00,58.6,23.8,30.16,NNW,346,8.1,8.1,26,0.00,SCT,,0.00,WeatherDisplay:10.37,2013-03-26 22:00:00,
2013-03-26 18:01:00,58.1,23.3,30.16,SW,220,10.3,10.3,26,0.00,CLR,,0.00,WeatherDisplay:10.37,2013-03-26 22:01:00,
2013-03-26 18:05:00,59.0,24.1,30.16,NNW,339,9.2,9.2,26,0.00,CLR,,0.00,WeatherDisplay:10.37,2013-03-26 22:05:00,
2013-03-26 18:10:00,58.1,23.3,30.16,West,281,12.6,12.6,26,0.00,CLR,,0.00,WeatherDisplay:10.37,2013-03-26 22:10:00,
2013-03-26 18:16:00,57.2,23.5,30.16,North,353,8.1,8.1,27,0.00,CLR,,0.00,WeatherDisplay:10.37,2013-03-26 22:16:00,
2013-03-26 18:21:00,56.8,23.2,30.16,NW,326,8.1,8.1,27,0.00,CLR,,0.00,WeatherDisplay:10.37,2013-03-26 22:21:00,
2013-03-26 18:31:00,56.5,22.9,30.16,WNW,282,11.5,11.5,27,0.00,CLR,,0.00,WeatherDisplay:10.37,2013-03-26 22:31:00,
2013-03-26 18:36:00,56.3,22.7,30.16,WSW,258,8.1,8.1,27,0.00,CLR,,0.00,WeatherDisplay:10.37,2013-03-26 22:36:00,
2013-03-26 18:46:00,55.9,23.3,30.16,NW,321,5.8,5.8,28,0.00,CLR,,0.00,WeatherDisplay:10.37,2013-03-26 22:46:00,
2013-03-26 18:51:00,55.6,23.0,30.16,West,280,12.6,12.6,28,0.00,CLR,,0.00,WeatherDisplay:10.37,2013-03-26 22:51:00,
2013-03-26 19:00:00,54.7,23.0,30.16,WNW,302,5.8,5.8,29,0.00,CLR,,0.00,WeatherDisplay:10.37,2013-03-26 23:00:00,
2013-03-26 19:01:00,54.3,22.7,30.16,West,261,5.8,5.8,29,0.00,CLR,,0.00,WeatherDisplay:10.37,2013-03-26 23:01:00,
2013-03-26 19:05:00,54.9,23.2,30.16,West,265,11.5,11.5,29,0.00,CLR,,0.00,WeatherDisplay:10.37,2013-03-26 23:05:00,
2013-03-26 19:10:00,54.3,22.7,30.16,WSW,240,12.6,12.6,29,0.00,CLR,,0.00,WeatherDisplay:10.37,2013-03-26 23:10:00,
2013-03-26 19:16:00,53.8,22.2,30.19,WSW,257,5.8,5.8,29,0.00,CLR,,0.00,WeatherDisplay:10.37,2013-03-26 23:16:00,
2013-03-26 19:21:00,53.4,23.5,30.19,North,353,4.9,4.9,31,0.00,CLR,,0.00,WeatherDisplay:10.37,2013-03-26 23:21:00,
2013-03-26 19:31:00,53.1,26.1,30.19,WNW,289,8.3,8.3,35,0.00,CLR,,0.00,WeatherDisplay:10.37,2013-03-26 23:31:00,
2013-03-26 19:36:00,52.9,25.9,30.19,North,0,4.0,4.0,35,0.00,CLR,,0.00,WeatherDisplay:10.37,2013-03-26 23:36:00,
2013-03-26 19:46:00,52.5,26.3,30.19,North,353,8.1,8.1,36,0.00,CLR,,0.00,WeatherDisplay:10.37,2013-03-26 23:46:00,
2013-03-26 19:51:00,52.5,26.3,30.19,WNW,303,5.8,5.8,36,0.00,CLR,,0.00,WeatherDisplay:10.37,2013-03-26 23:51:00,
2013-03-26 20:00:00,52.3,26.1,30.19,NNW,328,6.3,6.3,36,0.00,CLR,,0.00,WeatherDisplay:10.37,2013-03-27 00:00:00,
2013-03-26 20:01:00,52.2,26.0,30.19,North,353,5.8,5.8,36,0.00,CLR,,0.00,WeatherDisplay:10.37,2013-03-27 00:01:00,
2013-03-26 20:05:00,52.3,26.1,30.19,West,262,6.9,6.9,36,0.00,CLR,,0.00,WeatherDisplay:10.37,2013-03-27 00:05:00,
2013-03-26 20:10:00,52.2,26.0,30.19,WNW,299,8.1,8.1,36,0.00,CLR,,0.00,WeatherDisplay:10.37,2013-03-27 00:10:00,
2013-03-26 20:16:00,52.2,26.0,30.19,NW,317,8.1,8.1,36,0.00,CLR,,0.00,WeatherDisplay:10.37,2013-03-27 00:16:00,
2013-03-26 20:21:00,52.0,25.8,30.19,North,353,6.3,6.3,36,0.00,CLR,,0.00,WeatherDisplay:10.37,2013-03-27 00:21:00,
2013-03-26 20:31:00,51.8,26.3,30.19,NNW,337,9.2,9.2,37,0.00,CLR,,0.00,WeatherDisplay:10.37,2013-03-27 00:31:00,
2013-03-26 20:36:00,51.8,26.3,30.19,NW,321,9.2,9.2,37,0.00,CLR,,0.00,WeatherDisplay:10.37,2013-03-27 00:36:00,
2013-03-26 20:46:00,51.6,26.8,30.19,North,357,8.1,8.1,38,0.00,CLR,,0.00,WeatherDisplay:10.37,2013-03-27 00:46:00,
2013-03-26 20:51:00,51.6,26.8,30.19,NW,318,5.8,5.8,38,0.00,CLR,,0.00,WeatherDisplay:10.37,2013-03-27 00:51:00,
2013-03-26 21:00:00,51.4,26.6,30.19,North,353,6.9,6.9,38,0.00,CLR,,0.00,WeatherDisplay:10.37,2013-03-27 01:00:00,
2013-03-26 21:01:00,51.1,26.3,30.19,North,0,4.0,4.0,38,0.00,CLR,,0.00,WeatherDisplay:10.37,2013-03-27 01:01:00,
2013-03-26 21:05:00,51.3,26.5,30.19,NNW,343,6.3,6.3,38,0.00,CLR,,0.00,WeatherDisplay:10.37,2013-03-27 01:05:00,
2013-03-26 21:10:00,51.1,26.3,30.19,North,357,5.8,5.8,38,0.00,CLR,,0.00,WeatherDisplay:10.37,2013-03-27 01:10:00,
2013-03-26 21:16:00,51.1,26.3,30.19,North,353,5.8,5.8,38,0.00,CLR,,0.00,WeatherDisplay:10.37,2013-03-27 01:16:00,
2013-03-26 21:21:00,50.9,26.2,30.19,NNW,338,9.2,9.2,38,0.00,CLR,,0.00,WeatherDisplay:10.37,2013-03-27 01:21:00,
2013-03-26 21:31:00,50.7,26.0,30.22,NNW,344,8.1,8.1,38,0.00,CLR,,0.00,WeatherDisplay:10.37,2013-03-27 01:31:00,
2013-03-26 21:36:00,50.7,26.0,30.22,NNW,331,8.1,8.1,38,0.00,CLR,,0.00,WeatherDisplay:10.37,2013-03-27 01:36:00,
2013-03-26 21:46:00,50.5,25.2,30.22,NNW,344,8.1,8.1,37,0.00,CLR,,0.00,WeatherDisplay:10.37,2013-03-27 01:46:00,
2013-03-26 21:51:00,50.7,25.4,30.22,North,357,8.1,8.1,37,0.00,CLR,,0.00,WeatherDisplay:10.37,2013-03-27 01:51:00,
2013-03-26 22:00:00,50.5,25.2,30.22,NNW,340,8.1,8.1,37,0.00,CLR,,0.00,WeatherDisplay:10.37,2013-03-27 02:00:00,
2013-03-26 22:01:00,50.5,25.2,30.22,North,357,5.8,5.8,37,0.00,CLR,,0.00,WeatherDisplay:10.37,2013-03-27 02:01:00,
2013-03-26 22:05:00,50.5,25.2,30.22,NW,322,5.8,5.8,37,0.00,CLR,,0.00,WeatherDisplay:10.37,2013-03-27 02:05:00,
2013-03-26 22:10:00,50.5,25.2,30.22,NNW,344,4.6,4.6,37,0.00,CLR,,0.00,WeatherDisplay:10.37,2013-03-27 02:10:00,
2013-03-26 22:16:00,50.4,25.7,30.22,NNW,341,6.3,6.3,38,0.00,CLR,,0.00,WeatherDisplay:10.37,2013-03-27 02:16:00,
2013-03-26 22:21:00,50.4,25.7,30.22,NNW,341,4.0,4.0,38,0.00,CLR,,0.00,WeatherDisplay:10.37,2013-03-27 02:21:00,
2013-03-26 22:31:00,50.4,25.7,30.22,NNW,332,8.1,8.1,38,0.00,CLR,,0.00,WeatherDisplay:10.37,2013-03-27 02:31:00,
2013-03-26 22:36:00,50.2,25.5,30.22,NNW,345,3.4,3.4,38,0.00,CLR,,0.00,WeatherDisplay:10.37,2013-03-27 02:36:00,
2013-03-26 22:46:00,50.2,25.5,30.22,North,7,4.6,4.6,38,0.00,CLR,,0.00,WeatherDisplay:10.37,2013-03-27 02:46:00,
2013-03-26 22:51:00,50.2,25.5,30.22,NNW,329,4.0,4.0,38,0.00,CLR,,0.00,WeatherDisplay:10.37,2013-03-27 02:51:00,
2013-03-26 23:00:00,49.8,25.2,30.22,NW,319,4.0,4.0,38,0.00,CLR,,0.00,WeatherDisplay:10.37,2013-03-27 03:00:00,
2013-03-26 23:01:00,49.6,25.7,30.22,North,0,3.6,3.6,39,0.00,CLR,,0.00,WeatherDisplay:10.37,2013-03-27 03:01:00,
2013-03-26 23:05:00,49.6,25.0,30.22,North,353,3.4,0.0,38,0.00,CLR,,0.00,WeatherDisplay:10.37,2013-03-27 03:05:00,
2013-03-26 23:10:00,49.6,25.7,30.22,NNW,341,3.6,3.6,39,0.00,CLR,,0.00,WeatherDisplay:10.37,2013-03-27 03:10:00,
2013-03-26 23:16:00,49.5,25.5,30.22,North,1,3.4,3.4,39,0.00,CLR,,0.00,WeatherDisplay:10.37,2013-03-27 03:16:00,
2013-03-26 23:21:00,49.3,25.3,30.22,NNW,334,4.9,4.9,39,0.00,CLR,,0.00,WeatherDisplay:10.37,2013-03-27 03:21:00,
2013-03-26 23:31:00,49.3,25.3,30.22,North,357,4.0,4.0,39,0.00,CLR,,0.00,WeatherDisplay:10.37,2013-03-27 03:31:00,
2013-03-26 23:36:00,49.3,26.0,30.22,North,357,4.0,4.0,40,0.00,CLR,,0.00,WeatherDisplay:10.37,2013-03-27 03:36:00,
2013-03-26 23:46:00,49.3,26.0,30.22,North,0,3.4,0.0,40,0.00,CLR,,0.00,WeatherDisplay:10.37,2013-03-27 03:46:00,
2013-03-26 23:51:00,49.1,25.8,30.22,North,357,2.3,0.0,40,0.00,CLR,,0.00,WeatherDisplay:10.37,2013-03-27 03:51:00,